Time,TemperatureF,DewpointF,PressureIn,WindDirection,WindDirectionDegrees,WindSpeedMPH,WindSpeedGustMPH,Humidity,HourlyPrecipIn,Conditions,Clouds,dailyrainin,SoftwareType,DateUTC
2013-11-25 00:22:00,24.0,14.0,30.43,South,180,0.0,0.0,66,0.00,,,0.00,,2013-11-25 06:22:00,
2013-11-25 00:42:00,24.0,14.0,30.42,South,177,0.0,0.0,66,0.00,,,0.00,,2013-11-25 06:42:00,
2013-11-25 00:52:00,25.0,15.0,30.41,SSE,165,0.0,0.0,66,0.00,,,0.00,,2013-11-25 06:52:00,
2013-11-25 01:21:00,25.0,15.0,30.39,South,175,0.0,0.0,65,0.00,,,0.00,,2013-11-25 07:21:00,
2013-11-25 01:52:00,26.0,15.0,30.38,South,175,0.0,0.0,63,0.00,,,0.00,,2013-11-25 07:52:00,
2013-11-25 02:11:00,27.0,15.0,30.39,South,178,0.0,0.0,61,0.00,,,0.00,,2013-11-25 08:11:00,
2013-11-25 02:22:00,27.0,15.0,30.38,South,173,0.0,0.0,60,0.00,,,0.00,,2013-11-25 08:22:00,
2013-11-25 02:42:00,27.0,15.0,30.38,SSW,195,0.0,0.0,60,0.00,,,0.00,,2013-11-25 08:42:00,
2013-11-25 02:52:00,27.0,15.0,30.37,South,171,0.0,0.0,60,0.00,,,0.00,,2013-11-25 08:52:00,
2013-11-25 03:21:00,27.0,14.0,30.35,SSW,192,0.0,0.0,58,0.00,,,0.00,,2013-11-25 09:21:00,
2013-11-25 03:53:00,27.0,15.0,30.35,SSW,207,0.0,0.0,59,0.00,,,0.00,,2013-11-25 09:53:00,
2013-11-25 04:23:00,27.0,15.0,30.34,South,181,0.0,0.0,60,0.00,,,0.00,,2013-11-25 10:23:00,
2013-11-25 04:42:00,27.0,15.0,30.34,South,184,0.0,0.0,60,0.00,,,0.00,,2013-11-25 10:42:00,
2013-11-25 04:53:00,26.0,14.0,30.34,South,185,0.0,0.0,61,0.00,,,0.00,,2013-11-25 10:53:00,
2013-11-25 05:22:00,26.0,15.0,30.32,South,186,0.0,0.0,63,0.00,,,0.00,,2013-11-25 11:22:00,
2013-11-25 05:52:00,27.0,16.0,30.31,South,182,0.0,0.0,62,0.00,,,0.00,,2013-11-25 11:52:00,
2013-11-25 06:22:00,28.0,17.0,30.30,South,180,0.0,0.0,62,0.00,,,0.00,,2013-11-25 12:22:00,
2013-11-25 06:42:00,28.0,16.0,30.29,South,178,0.0,0.0,60,0.00,,,0.00,,2013-11-25 12:42:00,
2013-11-25 06:52:00,28.0,16.0,30.30,South,186,0.0,0.0,59,0.00,,,0.00,,2013-11-25 12:52:00,
2013-11-25 07:11:00,28.0,16.0,30.29,SSW,192,0.0,0.0,59,0.00,,,0.00,,2013-11-25 13:11:00,
2013-11-25 07:22:00,29.0,16.0,30.29,South,174,0.0,0.0,59,0.00,,,0.00,,2013-11-25 13:22:00,
2013-11-25 07:52:00,29.0,17.0,30.29,South,181,0.0,0.0,60,0.00,,,0.00,,2013-11-25 13:52:00,
2013-11-25 08:22:00,30.0,17.0,30.29,South,190,0.0,0.0,59,0.00,,,0.00,,2013-11-25 14:22:00,
2013-11-25 08:42:00,30.0,17.0,30.29,South,184,0.0,0.0,59,0.00,,,0.00,,2013-11-25 14:42:00,
2013-11-25 08:52:00,31.0,17.0,30.27,SSW,205,0.0,0.0,56,0.00,,,0.00,,2013-11-25 14:52:00,
2013-11-25 09:21:00,32.0,18.0,30.26,South,175,0.0,0.0,56,0.00,,,0.00,,2013-11-25 15:21:00,
2013-11-25 09:54:00,33.0,18.0,30.26,South,182,0.0,0.0,53,0.00,,,0.00,,2013-11-25 15:54:00,
2013-11-25 10:23:00,33.0,17.0,30.26,SSW,195,0.0,0.0,52,0.00,,,0.00,,2013-11-25 16:23:00,
2013-11-25 10:43:00,33.0,17.0,30.26,SSW,198,0.0,0.0,52,0.00,,,0.00,,2013-11-25 16:43:00,
2013-11-25 10:52:00,34.0,17.0,30.26,SW,216,0.0,0.0,50,0.00,,,0.00,,2013-11-25 16:52:00,
2013-11-25 11:22:00,34.0,17.0,30.24,SSW,201,0.0,0.0,49,0.00,,,0.00,,2013-11-25 17:22:00,
2013-11-25 11:43:00,34.0,17.0,30.24,South,190,0.0,0.0,49,0.00,,,0.00,,2013-11-25 17:43:00,
2013-11-25 11:52:00,34.0,17.0,30.23,SSW,194,0.0,0.0,49,0.00,,,0.00,,2013-11-25 17:52:00,
2013-11-25 12:22:00,35.0,18.0,30.21,SSW,193,0.0,0.0,49,0.00,,,0.00,,2013-11-25 18:22:00,
2013-11-25 12:42:00,35.0,17.0,30.21,South,191,0.0,0.0,48,0.00,,,0.00,,2013-11-25 18:42:00,
2013-11-25 12:52:00,35.0,18.0,30.21,SSW,198,0.0,0.0,49,0.00,,,0.00,,2013-11-25 18:52:00,
2013-11-25 13:21:00,35.0,18.0,30.21,SSW,200,0.0,0.0,49,0.00,,,0.00,,2013-11-25 19:21:00,
2013-11-25 13:42:00,35.0,19.0,30.20,SSW,193,0.0,0.0,52,0.00,,,0.00,,2013-11-25 19:42:00,
2013-11-25 13:52:00,35.0,20.0,30.19,SSW,205,0.0,0.0,53,0.00,,,0.00,,2013-11-25 19:52:00,
2013-11-25 14:21:00,35.0,20.0,30.17,SSW,200,0.0,0.0,53,0.00,,,0.00,,2013-11-25 20:21:00,
2013-11-25 14:42:00,35.0,18.0,30.17,SSW,194,0.0,0.0,50,0.00,,,0.00,,2013-11-25 20:42:00,
2013-11-25 14:52:00,36.0,18.0,30.18,SSW,213,0.0,0.0,48,0.00,,,0.00,,2013-11-25 20:52:00,
2013-11-25 15:22:00,36.0,18.0,30.18,SSW,213,0.0,0.0,47,0.00,,,0.00,,2013-11-25 21:22:00,
2013-11-25 15:44:00,36.0,18.0,30.18,SSW,213,0.0,0.0,47,0.00,,,0.00,,2013-11-25 21:44:00,
2013-11-25 15:54:00,36.0,18.0,30.18,SSW,213,0.0,0.0,47,0.00,,,0.00,,2013-11-25 21:54:00,
2013-11-25 16:13:00,36.0,17.0,30.18,SSW,210,0.0,0.0,45,0.00,,,0.00,,2013-11-25 22:13:00,
2013-11-25 16:23:00,36.0,17.0,30.18,SSW,198,0.0,0.0,46,0.00,,,0.00,,2013-11-25 22:23:00,
2013-11-25 16:43:00,36.0,18.0,30.18,SSW,198,0.0,0.0,47,0.00,,,0.00,,2013-11-25 22:43:00,
2013-11-25 16:53:00,35.0,17.0,30.17,SSW,199,0.0,0.0,48,0.00,,,0.00,,2013-11-25 22:53:00,
2013-11-25 17:22:00,35.0,19.0,30.17,SSW,199,0.0,0.0,51,0.00,,,0.00,,2013-11-25 23:22:00,
2013-11-25 17:42:00,35.0,20.0,30.17,SSW,199,0.0,0.0,53,0.00,,,0.00,,2013-11-25 23:42:00,
2013-11-25 17:52:00,34.0,20.0,30.18,SSW,199,0.0,0.0,55,0.00,,,0.00,,2013-11-25 23:52:00,
2013-11-25 18:21:00,34.0,21.0,30.19,SSW,197,0.0,0.0,59,0.00,,,0.00,,2013-11-26 00:21:00,
2013-11-25 18:42:00,34.0,22.0,30.19,SSW,197,0.0,0.0,60,0.00,,,0.00,,2013-11-26 00:42:00,
2013-11-25 18:52:00,34.0,21.0,30.19,SSW,197,0.0,0.0,59,0.00,,,0.00,,2013-11-26 00:52:00,
2013-11-25 19:21:00,34.0,22.0,30.20,SSW,197,0.0,0.0,61,0.00,,,0.00,,2013-11-26 01:21:00,
2013-11-25 19:42:00,34.0,22.0,30.20,SSW,197,0.0,0.0,62,0.00,,,0.00,,2013-11-26 01:42:00,
2013-11-25 19:52:00,34.0,22.0,30.20,SSW,197,0.0,0.0,61,0.00,,,0.00,,2013-11-26 01:52:00,
2013-11-25 20:11:00,34.0,22.0,30.20,SSW,197,0.0,0.0,60,0.00,,,0.00,,2013-11-26 02:11:00,
2013-11-25 20:22:00,34.0,22.0,30.20,SSW,197,0.0,0.0,60,0.00,,,0.00,,2013-11-26 02:22:00,
2013-11-25 20:42:00,33.0,21.0,30.20,SSW,197,0.0,0.0,60,0.00,,,0.00,,2013-11-26 02:42:00,
2013-11-25 20:52:00,33.0,21.0,30.19,SSW,197,0.0,0.0,61,0.00,,,0.00,,2013-11-26 02:52:00,
2013-11-25 21:22:00,33.0,21.0,30.18,SSW,197,0.0,0.0,62,0.00,,,0.00,,2013-11-26 03:22:00,
2013-11-25 21:44:00,33.0,21.0,30.18,SSW,197,0.0,0.0,62,0.00,,,0.00,,2013-11-26 03:44:00,
2013-11-25 21:54:00,32.0,21.0,30.17,SSW,197,0.0,0.0,64,0.00,,,0.00,,2013-11-26 03:54:00,
2013-11-25 22:13:00,31.0,21.0,30.17,SSW,197,0.0,0.0,65,0.00,,,0.00,,2013-11-26 04:13:00,
2013-11-25 22:23:00,30.0,20.0,30.17,SSW,197,0.0,0.0,66,0.00,,,0.00,,2013-11-26 04:23:00,
2013-11-25 22:43:00,29.0,20.0,30.16,SSW,197,0.0,0.0,69,0.00,,,0.00,,2013-11-26 04:43:00,
2013-11-25 22:53:00,28.0,20.0,30.15,SSW,197,0.0,0.0,71,0.00,,,0.00,,2013-11-26 04:53:00,
2013-11-25 23:23:00,26.0,18.0,30.16,SSW,197,0.0,0.0,72,0.00,,,0.00,,2013-11-26 05:23:00,
2013-11-25 23:43:00,26.0,19.0,30.17,SSW,197,0.0,0.0,73,0.00,,,0.00,,2013-11-26 05:43:00,
2013-11-25 23:53:00,25.0,18.0,30.17,SSW,197,0.0,0.0,75,0.00,,,0.00,,2013-11-26 05:53:00,